Location: *
(38.9800°N, 16.0500°E)
Time: 22:11:16
(UTC+00:00)

Cosmos 1300 Rocket - Pass Details

Date: 07 April 2020
Orbit: 603 x 626 km, 82.5° (Epoch: 25 May)

Event Time Altitude Azimuth Distance (km) Brightness Sun altitude
Rises 03:25:13 0° 342° (NNW) 2,862 7.0 -13.1°
Reaches altitude 10° 03:27:36 10° 332° (NNW) 1,955 6.0 -12.7°
Maximum altitude 03:31:27 32° 269° (W) 1,033 4.2 -12.0°
Drops below altitude 10° 03:35:17 10° 206° (SSW) 1,947 5.7 -11.3°
Sets 03:37:39 0° 196° (SSW) 2,848 6.6 -10.9°
